Probability
0 0 0 0 0 0 0 0 0 0 0 0 0 1 1 0 0 0 0 0 0 2 3 4 7 9 6 3 2 2 1 1 1 1 1 0 0 0 0 0 0 0 0 0 0 0 0 0 0
0 0 0 0 0 0 0 0 0 0 1 1 2 2 2 1 0 0 0 1 2 2 4 5 7 9 7 4 3 3 2 1 1 1 0 0 0 0 0 0 0 0 0 0 0 0 0 0 0
0 0 0 0 0 0 0 0 0 1 2 4 4 4 3 1 0 1 3 6 6 5 4 6 10 10 9 6 5 4 2 1 0 0 0 0 0 0 0 0 0 0 0 0 0 0 0 0 0
0 0 0 0 0 0 0 0 1 3 5 7 8 8 5 2 2 5 9 14 14 10 6 9 15 14 11 9 6 3 2 1 0 0 0 0 0 0 0 0 0 0 0 0 0 0 0 0 0
0 0 0 0 0 0 0 0 1 4 7 11 13 12 9 6 7 13 18 21 20 15 9 12 18 17 14 11 5 1 1 0 0 0 0 0 0 0 0 0 0 0 0 0 0 0 0 0 0
0 0 0 0 0 0 0 0 1 4 10 15 17 17 14 13 16 21 24 24 22 18 14 14 17 16 13 9 4 1 0 0 0 0 0 0 0 0 0 0 0 0 0 0 0 0 0 0 0
0 0 0 0 0 0 0 0 1 5 11 18 21 20 18 19 25 30 30 28 25 22 20 20 18 15 10 6 4 1 0 0 0 0 0 0 0 0 0 0 0 0 0 0 0 0 0 0 0
0 0 0 0 0 0 0 1 2 5 12 20 24 22 22 28 35 37 37 36 31 27 26 25 21 15 9 5 3 1 0 0 0 0 0 0 0 0 0 0 0 0 0 0 0 0 0 0 0
0 0 0 0 0 0 0 1 3 7 14 22 25 25 31 42 46 43 42 40 35 30 29 27 22 15 9 6 3 1 0 0 0 0 0 1 0 0 0 0 0 0 0 0 0 0 0 0 0
0 0 0 0 0 0 1 2 4 8 13 20 26 35 47 56 52 44 41 40 37 34 30 27 23 16 11 8 5 2 0 0 0 0 0 0 0 0 0 0 0 0 0 0 0 0 0 0 0
0 0 0 0 0 0 1 2 3 5 9 15 28 45 58 62 54 43 38 38 38 36 32 28 24 18 13 10 8 4 1 0 0 0 0 0 0 0 0 0 0 0 0 0 0 0 0 0 0
0 0 0 0 0 0 0 1 2 3 6 13 29 47 58 59 52 43 39 37 37 35 31 26 22 18 14 13 10 6 2 0 0 0 0 0 0 0 0 0 0 0 0 0 0 0 0 0 0
0 0 0 0 0 0 1 2 2 4 7 15 27 42 51 51 48 45 42 40 37 34 28 24 21 18 15 12 9 6 2 1 1 1 1 0 0 0 0 0 0 0 0 0 0 0 0 0 0
0 0 0 0 0 0 1 2 3 5 11 19 27 35 39 40 43 45 44 42 39 33 27 23 22 20 14 9 6 4 2 2 2 2 1 0 0 0 0 0 0 0 0 0 0 0 0 0 0
0 0 0 0 0 0 1 1 2 5 12 20 25 27 28 31 37 42 42 40 36 29 24 21 19 16 10 5 3 3 3 2 2 3 2 1 0 0 0 0 0 0 0 0 0 0 0 0 0
0 0 0 0 0 0 0 0 1 4 11 18 22 22 23 26 32 36 36 34 28 22 18 16 14 9 5 3 2 2 2 2 1 2 2 1 0 0 0 0 0 0 0 0 0 0 0 0 0
0 0 0 0 0 0 0 0 1 4 11 17 19 20 22 24 27 30 32 30 24 16 12 11 8 5 2 1 0 0 1 0 0 1 1 0 0 0 0 0 0 0 0 0 0 0 0 0 0
0 0 0 0 0 0 0 0 1 5 11 15 16 18 21 21 22 25 27 27 23 14 9 7 5 2 1 0 0 0 0 0 0 0 0 0 0 0 0 0 0 0 0 0 0 0 0 0 0
0 0 0 0 0 0 1 1 1 4 10 11 11 15 20 21 20 22 23 23 20 14 9 6 3 2 1 1 0 0 1 1 1 1 0 0 0 0 0 0 0 0 0 0 0 0 0 0 0
0 0 0 0 0 0 1 2 1 3 7 8 8 11 19 23 23 21 20 17 14 12 9 6 3 3 3 3 1 1 1 2 2 2 1 0 0 0 0 0 0 0 0 0 0 0 0 0 0
0 0 0 0 0 0 1 1 0 1 3 4 5 9 16 22 23 20 15 11 8 9 8 6 4 4 5 5 3 2 1 2 2 2 1 0 0 0 0 0 0 0 0 0 0 0 0 0 0
0 0 0 0 0 0 1 0 0 0 1 1 2 6 12 16 16 14 11 7 5 5 5 4 4 4 5 5 4 3 2 2 2 2 1 0 0 0 0 0 0 0 0 0 0 0 0 0 0
0 0 0 0 0 0 0 0 0 0 0 0 0 3 6 9 9 8 8 6 3 3 2 2 3 4 4 4 4 3 3 2 1 1 1 0 0 0 0 0 0 0 0 0 0 0 0 0 0
0 0 0 0 0 0 0 0 0 0 0 0 0 1 3 4 3 3 4 4 3 2 1 1 2 3 3 3 3 3 3 2 1 1 0 0 0 0 0 0 0 0 0 0 0 0 0 0 0
0 0 0 0 0 0 0 0 0 0 0 0 0 1 2 1 0 1 2 3 3 2 1 1 2 3 3 3 3 3 3 3 2 2 1 1 0 0 0 0 0 0 0 0 0 0 0 0 0
0 0 0 0 0 0 0 0 0 0 0 0 0 0 1 0 0 1 2 3 3 1 1 1 2 2 3 3 3 2 2 2 3 3 3 2 1 0 0 0 0 0 0 0 0 0 0 0 0
0 0 0 0 0 0 0 0 0 0 0 0 0 1 1 1 0 0 1 2 2 1 0 1 1 1 2 2 2 1 1 1 1 2 3 3 2 1 0 0 0 0 0 0 0 0 0 0 0
0 0 0 0 0 0 0 0 0 0 0 0 0 1 1 1 0 0 0 1 1 0 0 1 1 1 2 3 2 1 0 0 0 1 1 2 2 1 0 0 0 0 0 0 0 0 0 0 0
0 0 0 0 0 0 0 0 0 0 0 0 0 0 0 0 0 1 1 0 0 0 0 1 2 3 3 3 2 1 0 0 0 0 0 1 1 0 0 0 0 0 0 0 0 0 0 0 0
0 0 0 0 0 0 0 0 0 0 0 0 0 0 0 0 1 2 2 1 0 0 0 1 2 3 3 3 2 1 0 0 0 0 0 0 0 0 0 0 0 0 0 0 0 0 0 0 0
Wind_Speed
4 3 2 1 3 4 2 3 1 1 1 1 4 5 6 4 4 3 2 10 14 14 12 15 17 17 17 16 16 16 17 16 16 16 15 15 14 13 13 12 11 11 11 11 11 12 12 13 13
3 3 1 2 4 3 4 3 1 1 2 4 4 4 4 2 3 6 6 9 15 14 11 13 18 17 17 16 16 16 16 16 15 15 14 14 13 13 12 12 11 11 11 11 11 12 12 13 13
3 2 2 3 2 2 3 2 1 0 2 2 3 3 3 3 5 6 6 13 13 12 10 14 20 19 17 16 16 16 15 15 15 14 14 13 13 12 12 11 11 11 11 11 11 12 12 13 13
2 2 3 4 1 4 4 4 2 2 0 1 3 4 3 2 5 6 12 14 14 11 10 14 20 19 18 17 16 15 15 14 14 14 13 13 12 11 11 11 11 11 11 11 12 12 12 12 12
3 3 4 3 4 5 4 4 3 3 2 1 3 3 2 3 7 13 14 14 14 11 9 12 19 19 18 17 16 15 15 14 14 13 12 12 12 11 11 11 11 11 11 11 11 11 11 11 11
3 4 4 2 6 5 3 2 3 3 2 2 4 3 1 3 9 12 12 12 12 12 10 11 18 19 18 17 16 15 14 14 13 13 12 12 11 11 11 10 10 10 10 10 10 10 10 10 10
3 3 1 2 4 5 3 0 3 3 3 4 6 5 1 3 6 10 10 11 10 10 9 8 10 13 17 17 16 15 14 13 13 12 12 12 11 11 11 10 10 10 10 10 10 9 9 9 8
4 4 0 2 3 5 2 1 0 3 2 2 4 6 5 6 10 10 10 10 10 9 8 8 8 8 8 9 15 15 15 13 13 12 12 12 11 10 10 8 9 10 10 9 9 8 8 8 7
4 4 2 4 4 5 2 1 1 2 4 2 1 1 4 15 14 13 11 9 9 9 7 8 8 7 7 7 11 12 13 13 11 9 11 9 4 4 5 7 8 9 9 9 8 8 8 7 6
4 2 6 5 4 5 5 3 2 2 2 1 2 5 12 16 15 15 14 13 12 11 8 7 8 7 7 7 5 4 4 5 4 3 5 4 4 3 4 5 8 8 8 8 7 7 7 5 3
5 6 5 6 7 5 5 3 2 5 3 6 7 11 15 15 14 13 13 13 12 11 10 8 8 7 6 4 4 3 3 3 4 5 5 4 4 2 2 1 2 3 4 3 4 4 3 3 2
4 7 6 6 5 3 3 2 2 4 5 4 9 14 16 16 14 14 13 12 10 11 10 8 8 7 5 5 4 4 3 3 3 4 5 4 3 2 2 1 2 2 2 2 2 2 3 3 3
4 5 5 6 7 3 1 1 2 1 1 6 11 14 14 14 12 10 9 9 10 10 10 8 7 7 6 5 4 4 3 3 3 3 4 4 3 3 2 2 2 2 2 2 2 2 2 2 2
4 5 7 6 4 1 1 0 2 1 4 8 11 12 13 12 11 9 10 10 11 12 11 9 8 7 6 4 4 4 4 4 3 3 4 4 3 3 3 2 2 1 1 2 2 2 2 2 2
3 5 7 3 2 1 2 3 1 2 6 8 8 8 9 9 9 11 12 12 12 11 10 9 9 7 7 6 5 5 4 4 4 3 4 4 4 4 3 3 2 2 2 2 2 2 2 2 2
3 3 4 6 3 2 2 4 3 3 7 7 7 7 7 7 8 8 8 9 10 11 10 10 9 8 7 5 4 3 4 4 3 3 3 4 4 4 3 3 2 2 2 2 2 2 2 2 2
5 2 3 6 3 2 2 4 3 2 5 6 6 6 6 6 6 7 8 8 10 11 11 10 8 8 7 6 4 4 3 4 3 3 3 4 5 5 4 3 2 3 3 2 2 2 2 2 2
2 2 3 5 5 4 2 4 3 2 4 4 4 4 5 6 7 7 8 9 9 9 10 9 9 8 7 5 4 3 3 3 3 3 4 5 4 5 4 3 3 4 3 2 2 2 2 2 2
2 2 7 8 4 2 3 3 3 2 2 3 3 4 5 5 5 6 6 7 8 9 9 10 10 8 7 5 4 4 4 3 3 3 4 5 5 5 5 3 3 3 3 3 4 3 3 2 1
3 4 6 7 2 1 2 4 3 2 3 4 4 5 6 5 5 6 7 8 9 10 10 10 9 8 7 5 4 3 3 3 2 3 3 4 5 5 5 5 4 4 3 3 3 3 2 2 1
4 5 6 5 4 3 2 5 3 2 1 2 3 4 5 7 8 8 9 9 9 10 11 10 9 8 8 7 5 4 3 3 2 2 3 4 5 5 5 6 5 4 4 4 4 4 4 3 1
6 6 6 4 1 3 1 3 7 3 3 3 2 2 5 6 7 8 9 10 10 9 8 8 8 8 8 8 7 7 5 4 4 4 3 4 5 5 5 6 5 5 4 4 4 3 3 4 2
8 2 1 1 2 1 2 2 8 3 4 5 3 3 4 5 7 8 8 8 8 8 8 8 8 8 8 8 8 7 5 4 3 3 4 4 3 4 5 5 5 5 4 4 4 4 3 3 3
4 5 5 5 5 1 3 2 7 4 6 3 3 3 4 5 6 6 5 6 7 7 7 8 8 7 8 8 8 8 7 6 6 5 5 4 2 3 4 5 5 5 4 5 4 4 4 3 3
4 6 4 5 4 5 2 2 9 6 5 4 4 5 5 5 6 7 7 7 7 8 8 8 9 8 8 9 8 8 8 8 8 6 6 5 4 3 5 5 5 4 4 5 4 4 4 4 4
6 10 8 5 5 5 2 5 8 4 2 1 3 5 6 7 7 7 8 8 7 8 8 8 8 8 8 8 7 7 7 6 5 6 5 6 5 5 5 6 5 5 5 5 5 4 3 3 3
7 5 7 8 3 1 5 6 8 1 0 1 2 5 7 7 7 8 8 7 7 7 7 8 8 7 7 8 7 6 7 6 6 5 5 4 4 5 6 6 6 5 5 5 5 3 4 4 3
6 9 6 7 6 3 4 4 5 4 3 2 3 5 6 6 6 6 6 6 5 5 6 6 7 7 7 7 7 7 7 7 6 5 6 5 5 5 6 6 6 6 5 5 5 4 4 4 3
5 5 6 5 5 7 3 7 6 6 5 5 5 5 6 7 7 6 5 5 5 5 5 6 6 6 6 7 6 6 6 6 5 5 6 5 5 5 6 6 6 6 6 5 5 4 4 4 3
5 7 8 7 4 4 4 8 4 3 3 4 4 4 4 5 5 6 6 6 6 5 5 5 5 6 6 6 6 6 5 5 5 5 5 5 5 5 6 6 5 5 5 5 5 5 4 4 3
Wind_Direction
191 150 147 130 55 43 340 294 276 328 54 108 132 133 139 149 172 191 122 139 136 143 148 148 146 142 138 135 132 130 128 127 127 127 128 128 129 129 129 129 128 124 122 120 118 118 119 119 118
138 149 139 61 72 42 311 299 313 291 145 124 97 96 104 107 89 113 127 143 141 143 145 148 148 145 142 140 137 135 132 131 130 130 131 131 131 132 131 130 129 126 124 122 121 119 120 120 120
158 168 90 66 90 181 260 266 251 10 129 121 100 77 108 136 132 142 147 143 139 142 144 154 152 149 147 144 141 138 136 136 134 134 133 133 133 133 132 132 130 128 126 125 123 121 122 122 123
125 62 57 62 278 234 234 248 210 165 200 65 113 96 71 72 144 142 138 142 139 140 145 156 153 152 150 148 146 142 142 141 138 137 136 136 136 135 134 131 130 128 127 126 123 122 123 124 125
70 76 52 10 283 262 249 245 207 184 192 131 125 123 82 29 107 128 138 143 143 140 145 155 154 154 153 152 150 147 147 145 142 140 138 138 136 135 132 129 128 128 127 126 124 123 125 127 127
60 64 64 326 295 284 264 219 170 177 181 141 134 127 81 92 121 136 140 141 143 145 146 153 156 156 156 155 152 150 150 149 146 145 143 140 138 136 132 131 130 129 127 126 125 125 126 127 126
103 92 138 262 287 298 281 285 152 163 178 176 149 132 125 126 130 132 131 133 137 141 144 148 155 158 159 158 155 154 154 153 150 149 147 144 141 140 136 135 133 130 129 128 127 126 126 126 126
127 100 338 270 264 277 277 354 47 153 173 114 129 152 185 160 134 125 123 128 135 140 142 143 145 146 150 156 159 158 157 156 155 154 151 148 146 143 141 136 136 132 131 130 128 124 123 121 121
102 76 251 240 238 266 273 328 0 86 104 92 73 126 144 135 134 132 132 135 145 148 146 142 141 141 142 148 162 159 157 158 158 157 153 143 117 116 130 142 143 137 135 132 127 121 117 110 110
107 160 234 227 226 263 281 267 205 126 126 141 96 90 124 139 146 150 154 157 159 160 156 147 144 144 144 155 146 138 139 142 133 127 124 109 106 116 124 154 148 142 137 133 126 117 106 92 81
168 208 246 258 248 259 277 274 165 145 210 209 180 150 146 151 156 162 164 165 164 161 160 155 149 145 145 137 132 122 118 120 121 122 118 116 107 102 95 92 113 109 110 93 95 88 83 93 98
197 244 242 272 282 282 247 213 159 178 220 196 157 150 155 163 169 172 170 167 161 161 165 156 152 150 146 134 134 128 128 129 129 131 130 126 122 120 121 109 97 83 86 93 87 94 99 103 112
226 265 264 263 290 268 224 176 172 222 153 115 131 147 161 170 173 173 165 163 161 164 162 159 156 154 146 138 144 145 143 144 141 139 142 144 143 147 141 130 114 111 107 114 112 109 116 114 115
253 270 288 289 293 302 149 343 93 228 128 127 142 159 169 172 170 166 165 167 169 169 163 161 161 155 149 151 154 153 154 149 145 152 159 157 154 157 154 148 142 139 135 130 123 118 119 116 117
302 312 325 323 323 328 80 355 287 189 135 134 151 162 167 173 176 181 177 173 170 166 159 162 162 158 158 162 166 158 158 153 157 163 162 161 162 163 157 157 162 166 148 131 108 97 94 106 109
2 12 336 311 332 345 73 285 280 169 143 146 156 166 175 181 179 179 173 165 162 158 162 166 172 168 166 164 165 156 159 157 161 161 160 166 169 167 157 161 172 160 140 130 126 114 99 95 107
21 357 305 309 330 10 46 271 286 183 150 157 165 175 180 177 172 166 167 162 161 162 165 169 172 170 167 161 156 145 150 155 159 160 161 170 172 172 163 165 165 152 138 135 146 111 123 131 130
255 288 299 296 305 349 322 274 288 199 157 162 169 176 180 184 182 165 164 164 161 165 167 170 170 169 159 151 137 132 137 146 153 161 166 167 168 167 156 153 156 149 137 134 125 115 95 108 125
198 258 282 278 291 329 293 289 284 218 175 170 178 189 193 187 163 150 156 163 160 166 169 173 169 167 157 154 157 157 167 162 159 163 167 168 162 159 156 154 151 150 150 154 145 120 110 95 107
219 273 283 294 338 341 306 302 289 221 213 201 194 201 193 168 161 164 165 170 173 176 176 177 174 165 165 164 154 150 145 148 148 150 158 162 160 160 163 158 157 153 137 133 143 135 126 105 110
237 224 250 267 330 4 9 324 304 286 248 218 203 192 188 180 175 175 176 176 176 180 180 178 174 166 164 155 136 126 108 96 122 155 165 169 166 165 161 160 151 152 151 160 164 156 147 142 114
255 232 227 250 312 303 45 292 292 288 296 253 220 174 186 179 175 179 179 181 181 181 174 170 168 167 161 157 164 164 166 172 185 174 172 163 166 166 164 159 155 159 158 161 171 159 151 142 147
221 221 201 239 177 322 353 189 284 312 276 257 221 188 184 179 176 179 175 174 172 172 169 166 164 167 162 168 173 170 171 171 155 149 158 162 163 166 166 159 158 162 160 164 163 154 154 150 154
183 72 52 48 73 314 253 185 276 253 239 254 210 187 175 175 170 162 155 153 156 158 162 164 167 168 165 171 175 175 174 165 158 167 170 167 161 163 167 161 161 163 161 164 165 160 159 158 149
126 94 30 0 12 252 261 217 251 258 243 228 204 185 169 169 162 154 155 160 164 165 168 168 171 173 170 175 179 180 179 175 179 179 179 172 171 177 183 172 166 167 168 163 155 155 161 164 160
173 146 159 191 219 272 306 242 257 266 253 214 174 164 163 169 171 169 171 170 171 171 170 170 177 177 173 175 179 180 178 177 185 183 180 182 185 184 177 174 173 172 167 162 156 154 165 164 168
144 176 162 132 148 283 286 286 302 252 248 123 147 159 173 177 176 173 168 167 169 171 173 173 175 176 178 178 175 176 177 179 185 183 182 186 184 179 175 176 173 172 169 164 158 160 165 161 173
144 144 110 125 147 221 288 282 259 266 232 196 188 184 181 176 170 165 163 162 165 167 165 165 173 181 181 180 182 183 182 183 183 177 184 187 186 178 170 175 175 171 171 167 162 161 165 164 174
121 112 112 115 146 154 224 268 232 226 215 198 201 195 181 175 172 163 157 156 157 157 160 167 173 175 178 182 182 178 180 179 174 180 186 183 178 173 175 176 172 171 170 168 166 169 168 172 178
151 157 146 146 185 163 168 261 279 215 203 196 202 192 174 169 161 154 150 152 154 160 164 169 176 179 181 175 172 175 171 169 174 185 184 174 172 170 170 165 165 171 168 166 170 174 171 172 179